Flag for Slovakia Weather past 2 weeks in Bratislava, Slovakia

Now
48 °F

Clear.


Feels Like: 43 °F
Forecast: 41 / 48 °F
Wind: 12 mph from Southwest

Location: Bratislava Ivanka

Current Time: Dec 19, 2014 at 10:09:32 PM

Latest Report: Dec 19, 2014 at 9:30 PM


Visibility: 10 mi

Pressure: 29.98 "Hg

Humidity: 82%

Dew point: 43 °F

Location of BratislavaLocation

Historic Weather in Bratislava — Graph

°F

Bratislava temperature yesterday

Maximum temperature yesterday: 50 °F (at 3:00 PM)
Minimum temperature yesterday: 37 °F (at 12:00 AM)
Average temperature yesterday: 44 °F

Past Weeks' High & Low Weather Summary

 TemperatureHumidityPressure
High61 °F (Dec 19, 1:00 PM)100% (Dec 16, 2:00 AM)30.33 "Hg (Dec 16, 2:00 AM)
Low30 °F (Dec 10, 6:00 AM)51% (Dec 19, 11:30 AM)29.86 "Hg (Dec 16, 8:00 PM)
Average40 °F83%30.06 "Hg
* Reported Dec 4 9:00 PM — Dec 19 9:00 PM, Bratislava, Weather by CustomWeather, © 2014

Note: Actual official high and low records may vary slightly from our data, if they occured in-between our weather recording intervals... More about our weather records

Advertising

Bratislava weather history for previous 24 hours

 ConditionsComfort  
Time TempWeatherWind HumidityBarometerVisibility
9:00 PM
Dec 19
48 °FClear.8 mph82%29.98 "Hg10 mi
8:30 PM48 °FPassing clouds.6 mph87%29.98 "HgN/A
8:00 PM48 °FClear.6 mph82%29.98 "Hg10 mi
7:30 PM48 °FClear.5 mph87%29.98 "Hg10 mi
7:00 PM48 °FClear.7 mph82%29.98 "Hg10 mi
6:30 PM50 °FClear.6 mph82%29.98 "Hg10 mi
6:00 PM48 °FClear.5 mph87%29.98 "Hg10 mi
5:30 PM50 °FClear.6 mph82%29.98 "Hg10 mi
5:00 PM50 °FClear.6 mph82%29.98 "Hg10 mi
4:30 PM50 °FClear.7 mph82%29.98 "Hg10 mi
4:00 PM50 °FClear.7 mph82%29.98 "Hg10 mi
3:30 PM54 °FPassing clouds.8 mph72%30.01 "HgN/A
3:00 PM57 °FSunny.8 mph63%29.98 "Hg10 mi
2:30 PM59 °FPassing clouds.10 mph59%30.01 "HgN/A
2:00 PM61 °FPassing clouds.14 mph55%30.01 "HgN/A
1:30 PM61 °FPassing clouds.15 mph52%30.01 "HgN/A
1:00 PM61 °FPassing clouds.21 mph52%30.01 "HgN/A
12:30 PM59 °FPassing clouds.13 mph59%30.01 "HgN/A
12:00 PM59 °FPassing clouds.21 mph55%30.04 "HgN/A
11:30 AM59 °FPassing clouds.16 mph51%30.04 "HgN/A
11:00 AM57 °FPassing clouds.13 mph59%30.04 "HgN/A
10:30 AM59 °FPassing clouds.15 mph55%30.07 "HgN/A
10:00 AM57 °FPassing clouds.9 mph63%30.07 "HgN/A
9:30 AM55 °FPassing clouds.12 mph72%30.04 "HgN/A
9:00 AM52 °FPassing clouds.9 mph77%30.04 "HgN/A
8:30 AM54 °FPassing clouds.14 mph72%30.04 "HgN/A
8:00 AM52 °FScattered clouds.12 mph82%30.04 "HgN/A
7:30 AM55 °FPassing clouds.12 mph72%30.04 "HgN/A
7:00 AM55 °FPassing clouds.14 mph77%30.04 "HgN/A
6:30 AM54 °FPassing clouds.13 mph82%30.01 "HgN/A
6:00 AM54 °FPassing clouds.13 mph94%30.01 "HgN/A
5:30 AM45 °FPassing clouds.5 mph93%30.01 "Hg6 mi
5:00 AM45 °FPassing clouds.8 mph93%30.01 "Hg6 mi
4:30 AM45 °FPassing clouds.10 mph93%30.01 "Hg6 mi
4:00 AM45 °FPartly cloudy.9 mph93%30.01 "Hg5 mi
3:30 AM45 °FLight rain. Partly cloudy.8 mph93%30.04 "Hg4 mi
3:00 AM45 °FLight rain. Fog.10 mph93%30.04 "Hg3 mi
2:30 AM45 °FLight rain. Fog.8 mph93%30.04 "Hg2 mi
2:00 AM45 °FLight rain. Fog.5 mph93%30.04 "Hg3 mi
1:30 AM43 °FLight rain. Fog.3 mph93%30.04 "Hg3 mi
1:00 AM43 °FLight rain. Partly cloudy.6 mph93%30.04 "Hg4 mi
12:30 AM43 °FLight rain. Overcast.7 mph93%30.04 "Hg4 mi
12:00 AM45 °FLight rain. Passing clouds.6 mph87%30.04 "Hg6 mi
11:30 PM
Dec 18
45 °FLight rain. Partly cloudy.7 mph87%30.04 "Hg4 mi
11:00 PM45 °FLight rain. Passing clouds.6 mph87%30.04 "HgN/A
10:30 PM45 °FLight rain. Partly cloudy.7 mph87%30.04 "HgN/A
10:00 PM45 °FLight rain. Passing clouds.7 mph87%30.04 "HgN/A
Weather by CustomWeather, © 2014

See weather overviewHow to use our weather pages